Shreveport, LA

2:34 AM CDT on May 01, 2017 (GMT -0500)
Shreveport Regional

Weather History for KSHV - September, 2013

Change the Weather History Date:

Saturday, September 14, 2013

  Actual Average Record
Temperature  
Mean Temperature 80 °F 78 °F  
Max Temperature 91 °F 89 °F 102 °F (2011)
Min Temperature 69 °F 66 °F 50 °F (1940)
Degree Days  
Heating Degree Days 0 0  
Month to date heating degree days 0 0  
Since 1 July heating degree days 0 0  
Cooling Degree Days 15 13  
Month to date cooling degree days 292 205  
Year to date cooling degree days 2337 2167  
Growing Degree Days 30 (Base 50)    
Moisture  
Dew Point 55 °F    
Average Humidity 46    
Maximum Humidity 61    
Minimum Humidity 30    
Precipitation  
Precipitation 0.00 in 0.11 in 4.06 in (1881)
Month to date precipitation 0.06 1.43  
Year to date precipitation 27.02 35.42  
Snow  
Snow 0.00 in - - ()
Month to date snowfall 0.0  
Since 1 July snowfall 0.0  
Since 1 September snowfall 0.0  
Snow Depth 0.00 in    
Sea Level Pressure  
Sea Level Pressure 29.95 in    
Wind  
Wind Speed 9 mph (ENE)    
Max Wind Speed 17 mph    
Max Gust Speed 23 mph    
Visibility 10 miles    
Events      
T = Trace of Precipitation, MM = Missing Value Source: NWS Daily Summary

Daily Weather History Graph

Daily Weather History Graph

Search for Another Location

Airport or City:

Trip Planner

Search our weather history database for the weather conditions in past years. The results will help you decide how hot, cold, wet, or windy it might be!

Date:

Astronomy

Sep. 14, 2013 Rise Set
Actual Time 6:58 AM CDT 7:22 PM CDT
Civil Twilight 6:33 AM CDT 7:46 PM CDT
Nautical Twilight 6:05 AM CDT 8:15 PM CDT
Astronomical Twilight 5:35 AM CDT 8:45 PM CDT
Moon 3:52 PM CDT (9/14) 1:44 AM CDT (9/14)
Length of Visible Light 13h 12m
Length of Day
12h 23m
Waxing Gibbous, 72% of the Moon is Illuminated
Sep 14
Waxing Gibbous
Sep 19
Full
Sep 26
Last Quarter
Oct 4
New
Oct 11
First Quarter

Hourly Weather History & Observations

Time (CDT) Temp. Heat Index Dew Point Humidity Pressure Visibility Wind Dir Wind Speed Gust Speed Precip Events Conditions
12:56 AM 78.1 °F - 59.0 °F 52% 29.92 in 10.0 mi ENE 11.5 mph 21.9 mph N/A   Partly Cloudy
1:56 AM 75.0 °F - 57.9 °F 55% 29.94 in 10.0 mi ENE 9.2 mph - N/A   Scattered Clouds
2:56 AM 73.9 °F - 57.0 °F 55% 29.94 in 10.0 mi ENE 8.1 mph - N/A   Scattered Clouds
3:56 AM 73.0 °F - 55.0 °F 53% 29.93 in 10.0 mi ENE 8.1 mph - N/A   Mostly Cloudy
4:56 AM 70.0 °F - 55.0 °F 59% 29.94 in 10.0 mi ENE 4.6 mph - N/A   Mostly Cloudy
5:56 AM 70.0 °F - 55.0 °F 59% 29.94 in 10.0 mi East 5.8 mph - N/A   Mostly Cloudy
6:56 AM 70.0 °F - 54.0 °F 57% 29.96 in 10.0 mi East 8.1 mph - N/A   Mostly Cloudy
7:56 AM 71.1 °F - 55.0 °F 57% 29.98 in 10.0 mi ENE 11.5 mph - N/A   Mostly Cloudy
8:56 AM 72.0 °F - 55.0 °F 55% 29.99 in 10.0 mi NE 9.2 mph - N/A   Overcast
9:56 AM 75.9 °F - 55.9 °F 50% 29.99 in 10.0 mi East 9.2 mph - N/A   Mostly Cloudy
10:56 AM 79.0 °F - 55.9 °F 45% 30.00 in 10.0 mi East 8.1 mph - N/A   Mostly Cloudy
11:56 AM 84.0 °F 83.0 °F 55.9 °F 38% 30.00 in 10.0 mi ENE 11.5 mph 23.0 mph N/A   Scattered Clouds
12:56 PM 86.0 °F 84.5 °F 55.0 °F 35% 29.99 in 10.0 mi NE 11.5 mph 18.4 mph N/A   Scattered Clouds
1:56 PM 88.0 °F 86.5 °F 55.9 °F 34% 29.96 in 10.0 mi East 9.2 mph - N/A   Scattered Clouds
2:56 PM 90.0 °F 87.9 °F 55.0 °F 30% 29.94 in 10.0 mi ENE 9.2 mph 18.4 mph N/A   Scattered Clouds
3:56 PM 90.0 °F 87.9 °F 55.0 °F 30% 29.91 in 10.0 mi NE 8.1 mph - N/A   Scattered Clouds
4:56 PM 91.0 °F 89.2 °F 55.9 °F 30% 29.91 in 10.0 mi ENE 11.5 mph 19.6 mph N/A   Partly Cloudy
5:56 PM 90.0 °F 87.9 °F 55.0 °F 30% 29.90 in 10.0 mi NE 8.1 mph - N/A   Partly Cloudy
6:56 PM 86.0 °F 84.2 °F 54.0 °F 33% 29.91 in 10.0 mi East 6.9 mph - N/A   Partly Cloudy
7:56 PM 82.9 °F 81.9 °F 54.0 °F 37% 29.93 in 10.0 mi East 8.1 mph - N/A   Partly Cloudy
8:56 PM 80.1 °F 80.0 °F 54.0 °F 40% 29.95 in 10.0 mi ENE 8.1 mph - N/A   Clear
9:56 PM 79.0 °F - 52.0 °F 39% 29.96 in 10.0 mi East 9.2 mph - N/A   Clear
10:56 PM 77.0 °F - 50.0 °F 39% 29.97 in 10.0 mi East 8.1 mph - N/A   Clear
11:56 PM 75.0 °F - 48.9 °F 40% 29.97 in 10.0 mi East 6.9 mph - N/A   Clear